Simultaneous Nadir Overpasses (SNOs) Predictions

Prediction of SNOs between AQUA and NPP Satellite Orbit:

Table of predicted SNOs for the next 14.0 days since TLE Epoch: 3/12/2022
Index Date (AQUA) Time (AQUA) Lat,Lon (AQUA) SZA (AQUA ) Date (NPP) Time (NPP) Lat,Lon (NPP) SZA (NPP ) Distance(km) Time Diff (sec)
1 03/14/2022 05:30:57 -77.29, 161.19 81.48 03/14/2022 05:30:35 -77.29, 161.28 81.48 2.44 22
2 03/14/2022 06:20:13 77.73, -29.33 97.96 03/14/2022 06:21:09 77.72, -29.42 97.94 2.28 56
3 03/16/2022 20:57:59 76.87, 107.90 97.97 03/16/2022 20:56:54 76.88, 108.01 97.99 2.87 65
4 03/16/2022 21:47:14 -77.44, -82.29 82.74 03/16/2022 21:47:27 -77.43, -82.34 82.74 1.21 13
5 03/19/2022 13:14:12 77.18,-135.00 96.51 03/19/2022 13:13:42 77.19,-134.94 96.52 1.62 30
6 03/19/2022 14:03:28 -77.69, 34.72 84.14 03/19/2022 14:04:16 -77.69, 34.63 84.15 2.43 48
7 03/22/2022 04:41:15 -76.75, 171.67 84.04 03/22/2022 04:40:03 -76.75, 171.72 83.99 1.18 72
8 03/22/2022 05:30:21 77.65, -17.17 94.86 03/22/2022 05:30:26 77.66, -17.06 94.83 2.85 5
9 03/24/2022 20:57:29 -76.97, -71.58 85.38 03/24/2022 20:56:53 -76.97, -71.64 85.34 1.61 36



Historial Predications of SNOs between AQUA and NPP
